Retour au catalogue

FUCHENG-1

ActifScienceSSO
NORAD 56846·PAYLOAD·🇨🇳 China
Ce nom de satellite n'a pas encore été confirmé par des sources officielles.

Lancé Jun 7, 2023 depuis Jiuquan Satellite Launch Center

Loading…

Prochains Passages (prochaines 24 heures)

TLE

FraisSource: Space-Track

Époque: Sep 14, 2026, 14:58 UTC

1 56846U 23081A   26257.62396897  .00006056  00000-0  25033-3 0  9998
2 56846  97.3616 326.1320 0001132 113.5257 246.6099 15.24348069181638

Suivez FUCHENG-1 en temps réel avec AllMySat

Download on the App Store